| time (UTC) | temp F | wind direction | speed MPH | gust MPH | rain 1hr in | rain 24hr in | rain mn in | humidity % | barometer mb |
| 20260905193446 | 60 | 342 | 0.0 | 0.0 | 0.00 | 0.00 | 0.00 | 75 | 1021.0 |
| 20260905192946 | 60 | 342 | 0.0 | 0.0 | 0.00 | 0.00 | 0.00 | 75 | 1021.0 |
| 20260905192446 | 60 | 342 | 0.0 | 0.0 | 0.00 | 0.00 | 0.00 | 75 | 1021.3 |
| 20260905191948 | 60 | 342 | 0.0 | 0.0 | 0.00 | 0.00 | 0.00 | 74 | 1021.0 |
| 20260905191446 | 60 | 342 | 0.0 | 0.0 | 0.00 | 0.00 | 0.00 | 73 | 1021.0 |
| 20260905190945 | 60 | 342 | 0.0 | 0.0 | 0.00 | 0.00 | 0.00 | 73 | 1021.3 |
| 20260905190445 | 60 | 342 | 0.0 | 0.0 | 0.00 | 0.00 | 0.00 | 73 | 1021.0 |
| 20260905185946 | 60 | 342 | 0.0 | 1.0 | 0.00 | 0.00 | 0.00 | 72 | 1021.0 |
| 20260905185446 | 60 | 342 | 0.0 | 1.0 | 0.00 | 0.00 | 0.00 | 72 | 1021.0 |
| 20260905184946 | 61 | 342 | 0.0 | 0.0 | 0.00 | 0.00 | 0.00 | 72 | 1021.3 |
| 20260905184446 | 61 | 342 | 0.0 | 0.0 | 0.00 | 0.00 | 0.00 | 72 | 1021.0 |
| 20260905183947 | 61 | 342 | 0.0 | 1.0 | 0.00 | 0.00 | 0.00 | 71 | 1021.0 |
| 20260905183447 | 61 | 342 | 0.0 | 0.0 | 0.00 | 0.00 | 0.00 | 71 | 1021.0 |
| 20260905182946 | 62 | 342 | 0.0 | 0.0 | 0.00 | 0.00 | 0.00 | 70 | 1021.0 |
| 20260905182449 | 62 | 342 | 0.0 | 0.0 | 0.00 | 0.00 | 0.00 | 70 | 1021.0 |
| 20260905181946 | 62 | 345 | 1.0 | 1.0 | 0.00 | 0.00 | 0.00 | 69 | 1020.7 |
| 20260905181446 | 62 | 342 | 0.0 | 1.0 | 0.00 | 0.00 | 0.00 | 69 | 1021.0 |
| 20260905180945 | 63 | 343 | 0.0 | 1.0 | 0.00 | 0.00 | 0.00 | 68 | 1021.0 |
| 20260905180446 | 63 | 345 | 0.0 | 2.0 | 0.00 | 0.00 | 0.00 | 67 | 1021.0 |
| 20260905175946 | 64 | 1 | 0.0 | 1.0 | 0.00 | 0.00 | 0.00 | 66 | 1021.0 |
| 20260905175446 | 64 | 357 | 1.0 | 1.0 | 0.00 | 0.00 | 0.00 | 65 | 1021.0 |
| 20260905174946 | 65 | 13 | 0.0 | 2.0 | 0.00 | 0.00 | 0.00 | 64 | 1020.7 |
| 20260905174446 | 65 | 6 | 1.0 | 2.0 | 0.00 | 0.00 | 0.00 | 63 | 1021.0 |
| 20260905173946 | 65 | 359 | 0.0 | 3.0 | 0.00 | 0.00 | 0.00 | 63 | 1021.0 |
| 20260905173446 | 66 | 13 | 1.0 | 2.0 | 0.00 | 0.00 | 0.00 | 62 | 1021.0 |
| 20260905172946 | 66 | 333 | 3.0 | 6.0 | 0.00 | 0.00 | 0.00 | 62 | 1021.0 |
| 20260905172447 | 67 | 349 | 1.0 | 2.0 | 0.00 | 0.00 | 0.00 | 60 | 1021.0 |
| 20260905171946 | 66 | 346 | 1.0 | 2.0 | 0.00 | 0.00 | 0.00 | 60 | 1021.0 |
| 20260905171446 | 66 | 354 | 2.0 | 6.0 | 0.00 | 0.00 | 0.00 | 61 | 1021.0 |
| 20260905170946 | 66 | 355 | 1.0 | 5.0 | 0.00 | 0.00 | 0.00 | 61 | 1020.7 |
| 20260905170446 | 66 | 347 | 1.0 | 5.0 | 0.00 | 0.00 | 0.00 | 61 | 1020.7 |
| 20260905165945 | 66 | 335 | 3.0 | 3.0 | 0.00 | 0.00 | 0.00 | 60 | 1020.7 |
| 20260905165446 | 66 | 341 | 1.0 | 5.0 | 0.00 | 0.00 | 0.00 | 60 | 1020.7 |
| 20260905164946 | 67 | 356 | 1.0 | 3.0 | 0.00 | 0.00 | 0.00 | 60 | 1020.7 |
| 20260905164446 | 67 | 357 | 1.0 | 6.0 | 0.00 | 0.00 | 0.00 | 59 | 1020.7 |
| 20260905163946 | 67 | 355 | 1.0 | 7.0 | 0.00 | 0.00 | 0.00 | 59 | 1020.7 |
| 20260905163446 | 67 | 349 | 1.0 | 3.0 | 0.00 | 0.00 | 0.00 | 60 | 1020.7 |
| 20260905162946 | 66 | 23 | 1.0 | 2.0 | 0.00 | 0.00 | 0.00 | 60 | 1020.7 |
| 20260905162446 | 66 | 3 | 2.0 | 5.0 | 0.00 | 0.00 | 0.00 | 60 | 1021.0 |
| 20260905161947 | 66 | 353 | 1.0 | 5.0 | 0.00 | 0.00 | 0.00 | 61 | 1020.7 |
| 20260905161446 | 66 | 22 | 3.0 | 3.0 | 0.00 | 0.00 | 0.00 | 60 | 1020.7 |
| 20260905160946 | 66 | 1 | 1.0 | 5.0 | 0.00 | 0.00 | 0.00 | 59 | 1020.7 |
| 20260905160446 | 67 | 334 | 0.0 | 3.0 | 0.00 | 0.00 | 0.00 | 59 | 1020.7 |
| 20260905155947 | 67 | 328 | 4.0 | 6.0 | 0.00 | 0.00 | 0.00 | 59 | 1020.7 |
| 20260905155446 | 67 | 357 | 0.0 | 3.0 | 0.00 | 0.00 | 0.00 | 60 | 1020.7 |
| 20260905154946 | 67 | 9 | 0.0 | 3.0 | 0.00 | 0.00 | 0.00 | 60 | 1020.7 |
| 20260905154445 | 68 | 351 | 2.0 | 3.0 | 0.00 | 0.00 | 0.00 | 58 | 1020.7 |
| 20260905153946 | 68 | 348 | 1.0 | 6.0 | 0.00 | 0.00 | 0.00 | 58 | 1020.7 |
| 20260905153446 | 68 | 6 | 1.0 | 5.0 | 0.00 | 0.00 | 0.00 | 59 | 1020.7 |
| 20260905152946 | 68 | 346 | 2.0 | 5.0 | 0.00 | 0.00 | 0.00 | 57 | 1021.0 |
| 20260905152445 | 68 | 3 | 1.0 | 5.0 | 0.00 | 0.00 | 0.00 | 57 | 1021.0 |
| 20260905151946 | 69 | 0 | 2.0 | 6.0 | 0.00 | 0.00 | 0.00 | 57 | 1021.0 |
| 20260905151446 | 69 | 354 | 1.0 | 6.0 | 0.00 | 0.00 | 0.00 | 57 | 1021.0 |
| 20260905150946 | 68 | 5 | 1.0 | 3.0 | 0.00 | 0.00 | 0.00 | 57 | 1021.0 |
| 20260905150446 | 69 | 345 | 2.0 | 5.0 | 0.00 | 0.00 | 0.00 | 56 | 1021.0 |
| 20260905145947 | 69 | 7 | 2.0 | 5.0 | 0.00 | 0.00 | 0.00 | 55 | 1021.0 |
| 20260905145446 | 68 | 6 | 1.0 | 5.0 | 0.00 | 0.00 | 0.00 | 58 | 1020.7 |
| 20260905144946 | 69 | 355 | 3.0 | 5.0 | 0.00 | 0.00 | 0.00 | 56 | 1021.0 |
| 20260905144447 | 69 | 352 | 3.0 | 8.0 | 0.00 | 0.00 | 0.00 | 57 | 1021.3 |
| 20260905143945 | 69 | 341 | 1.0 | 2.0 | 0.00 | 0.00 | 0.00 | 55 | 1021.0 |
| 20260905143446 | 69 | 350 | 3.0 | 3.0 | 0.00 | 0.00 | 0.00 | 55 | 1021.0 |
| 20260905142946 | 69 | 351 | 0.0 | 3.0 | 0.00 | 0.00 | 0.00 | 56 | 1021.0 |
| 20260905142446 | 69 | 343 | 3.0 | 5.0 | 0.00 | 0.00 | 0.00 | 56 | 1021.3 |
| 20260905141945 | 69 | 348 | 1.0 | 3.0 | 0.00 | 0.00 | 0.00 | 58 | 1021.0 |
| 20260905141446 | 69 | 358 | 1.0 | 5.0 | 0.00 | 0.00 | 0.00 | 57 | 1021.0 |
| 20260905140946 | 68 | 3 | 2.0 | 3.0 | 0.00 | 0.00 | 0.00 | 58 | 1021.0 |
| 20260905140449 | 69 | 341 | 3.0 | 8.0 | 0.00 | 0.00 | 0.00 | 56 | 1021.3 |
| 20260905135946 | 69 | 342 | 0.0 | 5.0 | 0.00 | 0.00 | 0.00 | 58 | 1021.3 |
| 20260905135446 | 69 | 341 | 3.0 | 5.0 | 0.00 | 0.00 | 0.00 | 57 | 1021.3 |
| 20260905134946 | 68 | 22 | 1.0 | 6.0 | 0.00 | 0.00 | 0.00 | 59 | 1021.0 |
| 20260905134446 | 68 | 355 | 2.0 | 6.0 | 0.00 | 0.00 | 0.00 | 60 | 1021.3 |
| 20260905133946 | 67 | 339 | 1.0 | 3.0 | 0.00 | 0.00 | 0.00 | 60 | 1021.3 |
| 20260905133446 | 67 | 324 | 3.0 | 7.0 | 0.00 | 0.00 | 0.00 | 59 | 1021.3 |
| 20260905132946 | 68 | 351 | 2.0 | 5.0 | 0.00 | 0.00 | 0.00 | 59 | 1021.7 |
| 20260905132446 | 67 | 18 | 1.0 | 2.0 | 0.00 | 0.00 | 0.00 | 60 | 1021.3 |
| 20260905131946 | 67 | 1 | 2.0 | 3.0 | 0.00 | 0.00 | 0.00 | 60 | 1021.3 |
| 20260905131446 | 67 | 10 | 1.0 | 3.0 | 0.00 | 0.00 | 0.00 | 59 | 1021.3 |
| 20260905130946 | 68 | 351 | 1.0 | 1.0 | 0.00 | 0.00 | 0.00 | 59 | 1021.3 |
| 20260905130446 | 68 | 1 | 1.0 | 5.0 | 0.00 | 0.00 | 0.00 | 58 | 1021.3 |
| 20260905125946 | 67 | 1 | 1.0 | 5.0 | 0.00 | 0.00 | 0.00 | 60 | 1021.0 |
| 20260905125446 | 66 | 349 | 1.0 | 6.0 | 0.00 | 0.00 | 0.00 | 60 | 1021.3 |
| 20260905124946 | 66 | 13 | 2.0 | 6.0 | 0.00 | 0.00 | 0.00 | 60 | 1021.3 |
| 20260905124446 | 66 | 11 | 1.0 | 6.0 | 0.00 | 0.00 | 0.00 | 61 | 1021.0 |
| 20260905123946 | 66 | 339 | 3.0 | 7.0 | 0.00 | 0.00 | 0.00 | 59 | 1021.0 |
| 20260905123446 | 66 | 326 | 4.0 | 5.0 | 0.00 | 0.00 | 0.00 | 60 | 1021.0 |
| 20260905122946 | 66 | 35 | 1.0 | 7.0 | 0.00 | 0.00 | 0.00 | 60 | 1021.3 |
| 20260905122446 | 66 | 337 | 3.0 | 5.0 | 0.00 | 0.00 | 0.00 | 60 | 1021.0 |
| 20260905121945 | 66 | 18 | 4.0 | 6.0 | 0.00 | 0.00 | 0.00 | 59 | 1021.3 |
| 20260905121446 | 66 | 333 | 2.0 | 5.0 | 0.00 | 0.00 | 0.00 | 58 | 1021.3 |
| 20260905120945 | 66 | 355 | 1.0 | 3.0 | 0.00 | 0.00 | 0.00 | 59 | 1021.3 |
| 20260905120446 | 67 | 5 | 2.0 | 5.0 | 0.00 | 0.00 | 0.00 | 58 | 1021.0 |
| 20260905115946 | 67 | 10 | 1.0 | 2.0 | 0.00 | 0.00 | 0.00 | 57 | 1021.0 |
| 20260905115446 | 67 | 328 | 1.0 | 5.0 | 0.00 | 0.00 | 0.00 | 56 | 1021.3 |
| 20260905114946 | 66 | 0 | 3.0 | 7.0 | 0.00 | 0.00 | 0.00 | 58 | 1021.0 |
| 20260905114447 | 66 | 89 | 3.0 | 5.0 | 0.00 | 0.00 | 0.00 | 59 | 1021.0 |
| 20260905113946 | 66 | 90 | 3.0 | 6.0 | 0.00 | 0.00 | 0.00 | 59 | 1021.0 |
| 20260905113446 | 66 | 90 | 3.0 | 5.0 | 0.00 | 0.00 | 0.00 | 58 | 1021.0 |
| 20260905112946 | 68 | 88 | 2.0 | 3.0 | 0.00 | 0.00 | 0.00 | 56 | 1020.7 |
| 20260905112447 | 67 | 91 | 1.0 | 2.0 | 0.00 | 0.00 | 0.00 | 57 | 1020.7 |
| 20260905111946 | 66 | 91 | 0.0 | 3.0 | 0.00 | 0.00 | 0.00 | 60 | 1021.0 |
| 20260905111447 | 65 | 87 | 1.0 | 5.0 | 0.00 | 0.00 | 0.00 | 62 | 1021.0 |
| 20260905110945 | 65 | 88 | 5.0 | 7.0 | 0.00 | 0.00 | 0.00 | 61 | 1020.7 |
| 20260905110446 | 65 | 90 | 1.0 | 2.0 | 0.00 | 0.00 | 0.00 | 62 | 1021.3 |
| 20260905105946 | 65 | 90 | 1.0 | 3.0 | 0.00 | 0.00 | 0.00 | 62 | 1021.0 |
| 20260905105447 | 64 | 86 | 4.0 | 6.0 | 0.00 | 0.00 | 0.00 | 61 | 1021.0 |
| 20260905104946 | 64 | 90 | 3.0 | 6.0 | 0.00 | 0.00 | 0.00 | 62 | 1021.3 |
| 20260905104446 | 64 | 93 | 0.0 | 5.0 | 0.00 | 0.00 | 0.00 | 63 | 1021.0 |
| 20260905103946 | 64 | 93 | 0.0 | 3.0 | 0.00 | 0.00 | 0.00 | 62 | 1021.0 |
| 20260905103446 | 64 | 91 | 1.0 | 5.0 | 0.00 | 0.00 | 0.00 | 63 | 1021.3 |
| 20260905102945 | 64 | 91 | 1.0 | 3.0 | 0.00 | 0.00 | 0.00 | 64 | 1021.3 |
| 20260905102446 | 64 | 92 | 0.0 | 2.0 | 0.00 | 0.00 | 0.00 | 63 | 1021.3 |
| 20260905101946 | 64 | 92 | 2.0 | 5.0 | 0.00 | 0.00 | 0.00 | 63 | 1021.3 |
| 20260905101446 | 64 | 86 | 3.0 | 6.0 | 0.00 | 0.00 | 0.00 | 63 | 1021.0 |
| 20260905100946 | 63 | 91 | 1.0 | 5.0 | 0.00 | 0.00 | 0.00 | 64 | 1021.0 |
| 20260905100446 | 64 | 92 | 1.0 | 7.0 | 0.00 | 0.00 | 0.00 | 63 | 1021.3 |
| 20260905095946 | 64 | 96 | 1.0 | 3.0 | 0.00 | 0.00 | 0.00 | 64 | 1021.0 |
| 20260905095446 | 64 | 98 | 3.0 | 3.0 | 0.00 | 0.00 | 0.00 | 63 | 1021.0 |
| 20260905094946 | 64 | 95 | 2.0 | 3.0 | 0.00 | 0.00 | 0.00 | 62 | 1021.0 |
| 20260905094446 | 64 | 97 | 1.0 | 3.0 | 0.00 | 0.00 | 0.00 | 63 | 1021.0 |
| 20260905093946 | 64 | 96 | 0.0 | 1.0 | 0.00 | 0.00 | 0.00 | 63 | 1021.0 |
| 20260905093446 | 63 | 96 | 2.0 | 3.0 | 0.00 | 0.00 | 0.00 | 64 | 1021.0 |
| 20260905092949 | 63 | 96 | 2.0 | 5.0 | 0.00 | 0.00 | 0.00 | 64 | 1020.7 |
| 20260905092446 | 63 | 95 | 2.0 | 2.0 | 0.00 | 0.00 | 0.00 | 65 | 1020.7 |
| 20260905091946 | 63 | 94 | 1.0 | 5.0 | 0.00 | 0.00 | 0.00 | 65 | 1020.7 |
| 20260905091446 | 63 | 95 | 2.0 | 3.0 | 0.00 | 0.00 | 0.00 | 65 | 1020.7 |
| 20260905090945 | 62 | 96 | 0.0 | 2.0 | 0.00 | 0.00 | 0.00 | 67 | 1020.7 |
| 20260905090446 | 62 | 96 | 1.0 | 5.0 | 0.00 | 0.00 | 0.00 | 67 | 1020.7 |
| 20260905085946 | 62 | 96 | 0.0 | 7.0 | 0.00 | 0.00 | 0.00 | 67 | 1020.7 |
| 20260905085446 | 62 | 96 | 1.0 | 3.0 | 0.00 | 0.00 | 0.00 | 69 | 1020.7 |
| 20260905084945 | 62 | 96 | 3.0 | 3.0 | 0.00 | 0.00 | 0.00 | 69 | 1020.7 |
| 20260905084446 | 62 | 93 | 1.0 | 2.0 | 0.00 | 0.00 | 0.00 | 70 | 1020.7 |
| 20260905083946 | 62 | 95 | 1.0 | 5.0 | 0.00 | 0.00 | 0.00 | 69 | 1020.3 |
| 20260905083446 | 62 | 93 | 2.0 | 3.0 | 0.00 | 0.00 | 0.00 | 69 | 1020.3 |
| 20260905082945 | 62 | 93 | 3.0 | 3.0 | 0.00 | 0.00 | 0.00 | 69 | 1020.3 |
| 20260905082446 | 62 | 97 | 1.0 | 7.0 | 0.00 | 0.00 | 0.00 | 69 | 1020.3 |
| 20260905081946 | 62 | 97 | 1.0 | 3.0 | 0.00 | 0.00 | 0.00 | 70 | 1020.3 |
| 20260905081446 | 62 | 97 | 3.0 | 3.0 | 0.00 | 0.00 | 0.00 | 68 | 1020.3 |
| 20260905080946 | 62 | 101 | 2.0 | 6.0 | 0.00 | 0.00 | 0.00 | 70 | 1020.0 |
| 20260905080446 | 62 | 99 | 1.0 | 2.0 | 0.00 | 0.00 | 0.00 | 70 | 1020.0 |
| 20260905075946 | 62 | 99 | 2.0 | 2.0 | 0.00 | 0.00 | 0.00 | 70 | 1020.0 |
| 20260905075446 | 62 | 99 | 1.0 | 2.0 | 0.00 | 0.00 | 0.00 | 70 | 1019.6 |
| 20260905074947 | 62 | 99 | 1.0 | 2.0 | 0.00 | 0.00 | 0.00 | 71 | 1020.0 |
| 20260905074445 | 62 | 99 | 0.0 | 2.0 | 0.00 | 0.00 | 0.00 | 72 | 1020.0 |
| 20260905073947 | 61 | 99 | 1.0 | 3.0 | 0.00 | 0.00 | 0.00 | 73 | 1019.6 |
| 20260905073448 | 60 | 99 | 1.0 | 2.0 | 0.00 | 0.00 | 0.00 | 73 | 1019.6 |
| 20260905072946 | 60 | 99 | 0.0 | 2.0 | 0.00 | 0.00 | 0.00 | 74 | 1019.6 |
| 20260905072446 | 60 | 99 | 1.0 | 1.0 | 0.00 | 0.00 | 0.00 | 74 | 1020.0 |
| 20260905071946 | 60 | 99 | 0.0 | 0.0 | 0.00 | 0.00 | 0.00 | 75 | 1019.6 |
| 20260905071447 | 60 | 99 | 0.0 | 0.0 | 0.00 | 0.00 | 0.00 | 75 | 1019.6 |
| 20260905070946 | 60 | 99 | 0.0 | 1.0 | 0.00 | 0.00 | 0.00 | 76 | 1019.6 |
| 20260905070445 | 59 | 99 | 0.0 | 1.0 | 0.00 | 0.00 | 0.00 | 76 | 1019.6 |
| 20260905065946 | 59 | 99 | 0.0 | 1.0 | 0.00 | 0.00 | 0.00 | 76 | 1019.3 |
| 20260905065446 | 59 | 99 | 0.0 | 1.0 | 0.00 | 0.00 | 0.00 | 76 | 1019.6 |
| 20260905064946 | 59 | 100 | 0.0 | 0.0 | 0.00 | 0.00 | 0.00 | 76 | 1019.3 |
| 20260905064446 | 59 | 99 | 0.0 | 1.0 | 0.00 | 0.00 | 0.00 | 76 | 1019.3 |
| 20260905063945 | 59 | 100 | 0.0 | 0.0 | 0.00 | 0.00 | 0.00 | 76 | 1019.3 |
| 20260905063446 | 59 | 99 | 0.0 | 2.0 | 0.00 | 0.00 | 0.00 | 76 | 1019.3 |
| 20260905062946 | 59 | 99 | 0.0 | 2.0 | 0.00 | 0.00 | 0.00 | 77 | 1019.3 |
| 20260905062446 | 59 | 100 | 1.0 | 2.0 | 0.00 | 0.00 | 0.00 | 77 | 1019.3 |
| 20260905061946 | 59 | 99 | 1.0 | 3.0 | 0.00 | 0.00 | 0.00 | 78 | 1019.0 |
| 20260905061447 | 58 | 99 | 2.0 | 2.0 | 0.00 | 0.00 | 0.00 | 78 | 1019.3 |
| 20260905060946 | 58 | 99 | 0.0 | 2.0 | 0.00 | 0.00 | 0.00 | 79 | 1019.3 |
| 20260905060446 | 58 | 99 | 1.0 | 1.0 | 0.00 | 0.00 | 0.00 | 79 | 1019.3 |
| 20260905055946 | 58 | 99 | 0.0 | 1.0 | 0.00 | 0.00 | 0.00 | 80 | 1019.0 |
| 20260905055446 | 57 | 100 | 1.0 | 3.0 | 0.00 | 0.00 | 0.00 | 82 | 1019.0 |
| 20260905054946 | 56 | 99 | 1.0 | 1.0 | 0.00 | 0.00 | 0.00 | 86 | 1019.0 |
| 20260905054446 | 57 | 100 | 0.0 | 1.0 | 0.00 | 0.00 | 0.00 | 86 | 1019.0 |
| 20260905053946 | 57 | 100 | 0.0 | 1.0 | 0.00 | 0.00 | 0.00 | 85 | 1019.0 |
| 20260905053446 | 57 | 100 | 0.0 | 2.0 | 0.00 | 0.00 | 0.00 | 85 | 1019.0 |
| 20260905052946 | 57 | 100 | 0.0 | 1.0 | 0.00 | 0.00 | 0.00 | 85 | 1018.6 |
| 20260905052446 | 57 | 100 | 0.0 | 1.0 | 0.00 | 0.00 | 0.00 | 86 | 1018.6 |
| 20260905051946 | 57 | 100 | 2.0 | 2.0 | 0.00 | 0.00 | 0.00 | 86 | 1018.3 |
| 20260905051447 | 57 | 100 | 0.0 | 1.0 | 0.00 | 0.00 | 0.00 | 86 | 1018.6 |
| 20260905050946 | 57 | 99 | 0.0 | 1.0 | 0.00 | 0.00 | 0.00 | 86 | 1018.6 |
| 20260905050445 | 57 | 99 | 1.0 | 2.0 | 0.00 | 0.00 | 0.00 | 85 | 1018.6 |
| 20260905045946 | 57 | 99 | 1.0 | 2.0 | 0.00 | 0.00 | 0.00 | 85 | 1018.3 |
| 20260905045446 | 57 | 99 | 0.0 | 1.0 | 0.00 | 0.00 | 0.00 | 85 | 1018.3 |
| 20260905044946 | 57 | 98 | 1.0 | 2.0 | 0.00 | 0.00 | 0.00 | 85 | 1018.3 |
| 20260905044446 | 57 | 97 | 0.0 | 1.0 | 0.00 | 0.00 | 0.00 | 86 | 1018.3 |
| 20260905043946 | 56 | 95 | 1.0 | 1.0 | 0.00 | 0.00 | 0.00 | 86 | 1018.3 |
| 20260905043447 | 56 | 93 | 0.0 | 0.0 | 0.00 | 0.00 | 0.00 | 87 | 1017.9 |
| 20260905042946 | 56 | 100 | 0.0 | 1.0 | 0.00 | 0.00 | 0.00 | 87 | 1017.9 |
| 20260905042446 | 56 | 126 | 0.0 | 1.0 | 0.00 | 0.00 | 0.00 | 88 | 1017.9 |
| 20260905041946 | 56 | 116 | 0.0 | 1.0 | 0.00 | 0.00 | 0.00 | 88 | 1018.3 |
| 20260905041446 | 56 | 124 | 1.0 | 1.0 | 0.00 | 0.00 | 0.00 | 88 | 1017.9 |
| 20260905040946 | 56 | 131 | 0.0 | 0.0 | 0.00 | 0.00 | 0.00 | 88 | 1017.9 |
| 20260905040446 | 56 | 159 | 1.0 | 2.0 | 0.00 | 0.00 | 0.00 | 88 | 1017.9 |
| 20260905035946 | 56 | 155 | 1.0 | 1.0 | 0.00 | 0.00 | 0.00 | 88 | 1017.9 |
| 20260905035448 | 56 | 154 | 0.0 | 1.0 | 0.00 | 0.00 | 0.00 | 88 | 1017.9 |
| 20260905034946 | 56 | 153 | 1.0 | 1.0 | 0.00 | 0.00 | 0.00 | 88 | 1017.9 |
| 20260905034447 | 56 | 153 | 1.0 | 1.0 | 0.00 | 0.00 | 0.00 | 87 | 1017.6 |
| 20260905033946 | 56 | 148 | 0.0 | 1.0 | 0.00 | 0.00 | 0.00 | 86 | 1017.9 |
| 20260905033447 | 57 | 148 | 1.0 | 1.0 | 0.00 | 0.00 | 0.00 | 86 | 1017.6 |
| 20260905032947 | 57 | 115 | 0.0 | 0.0 | 0.00 | 0.00 | 0.00 | 86 | 1017.6 |
| 20260905032445 | 57 | 348 | 0.0 | 1.0 | 0.00 | 0.00 | 0.00 | 86 | 1017.6 |
| 20260905031946 | 57 | 348 | 0.0 | 0.0 | 0.00 | 0.00 | 0.00 | 86 | 1017.3 |
| 20260905031446 | 57 | 347 | 0.0 | 1.0 | 0.00 | 0.00 | 0.00 | 85 | 1017.3 |
| 20260905030946 | 58 | 350 | 0.0 | 0.0 | 0.00 | 0.00 | 0.00 | 85 | 1017.3 |
| 20260905030446 | 57 | 350 | 0.0 | 1.0 | 0.00 | 0.00 | 0.00 | 85 | 1017.6 |
| 20260905025947 | 57 | 18 | 0.0 | 1.0 | 0.00 | 0.00 | 0.00 | 85 | 1017.3 |
| 20260905025446 | 57 | 342 | 0.0 | 1.0 | 0.00 | 0.00 | 0.00 | 84 | 1017.3 |
| 20260905024946 | 57 | 311 | 1.0 | 1.0 | 0.00 | 0.00 | 0.00 | 85 | 1017.3 |
| 20260905024447 | 57 | 294 | 0.0 | 3.0 | 0.00 | 0.00 | 0.00 | 85 | 1017.3 |
| 20260905023946 | 57 | 123 | 0.0 | 1.0 | 0.00 | 0.00 | 0.00 | 85 | 1017.3 |
| 20260905023447 | 57 | 145 | 1.0 | 2.0 | 0.00 | 0.00 | 0.00 | 85 | 1017.3 |
| 20260905022946 | 57 | 39 | 1.0 | 3.0 | 0.00 | 0.00 | 0.00 | 86 | 1017.3 |
| 20260905022446 | 57 | 52 | 0.0 | 2.0 | 0.00 | 0.00 | 0.00 | 86 | 1016.9 |
| 20260905021946 | 57 | 146 | 0.0 | 1.0 | 0.00 | 0.00 | 0.00 | 86 | 1016.9 |
| 20260905021447 | 56 | 359 | 0.0 | 2.0 | 0.00 | 0.00 | 0.00 | 86 | 1016.9 |
| 20260905020948 | 56 | 165 | 1.0 | 3.0 | 0.00 | 0.00 | 0.00 | 86 | 1016.9 |
| 20260905020446 | 56 | 140 | 1.0 | 2.0 | 0.00 | 0.00 | 0.00 | 86 | 1016.9 |
| 20260905015946 | 56 | 310 | 2.0 | 3.0 | 0.00 | 0.00 | 0.00 | 85 | 1016.9 |
| 20260905015446 | 56 | 98 | 0.0 | 2.0 | 0.00 | 0.00 | 0.00 | 85 | 1016.6 |
| 20260905014946 | 56 | 138 | 1.0 | 2.0 | 0.00 | 0.00 | 0.00 | 85 | 1016.9 |
| 20260905014446 | 57 | 166 | 1.0 | 3.0 | 0.00 | 0.00 | 0.00 | 85 | 1017.3 |
| 20260905013948 | 57 | 161 | 1.0 | 2.0 | 0.00 | 0.00 | 0.00 | 85 | 1017.3 |
| 20260905013447 | 57 | 176 | 1.0 | 2.0 | 0.00 | 0.00 | 0.00 | 85 | 1016.9 |
| 20260905012945 | 56 | 123 | 0.0 | 1.0 | 0.00 | 0.00 | 0.00 | 85 | 1016.9 |
| 20260905012446 | 57 | 120 | 1.0 | 2.0 | 0.00 | 0.00 | 0.00 | 85 | 1016.6 |
| 20260905011946 | 57 | 71 | 1.0 | 2.0 | 0.00 | 0.00 | 0.00 | 85 | 1016.6 |
| 20260905011446 | 57 | 158 | 1.0 | 2.0 | 0.00 | 0.00 | 0.00 | 85 | 1016.6 |
| 20260905010946 | 57 | 169 | 1.0 | 2.0 | 0.00 | 0.00 | 0.00 | 85 | 1016.6 |
| 20260905010446 | 56 | 169 | 0.0 | 2.0 | 0.00 | 0.00 | 0.00 | 85 | 1016.6 |
| 20260905005947 | 56 | 175 | 2.0 | 2.0 | 0.00 | 0.00 | 0.00 | 86 | 1016.9 |
| 20260905005446 | 56 | 101 | 0.0 | 2.0 | 0.00 | 0.00 | 0.00 | 86 | 1016.9 |
| 20260905004946 | 56 | 166 | 1.0 | 1.0 | 0.00 | 0.00 | 0.00 | 86 | 1016.6 |
| 20260905004446 | 56 | 92 | 1.0 | 2.0 | 0.00 | 0.00 | 0.00 | 86 | 1016.9 |
| 20260905003946 | 56 | 62 | 0.0 | 2.0 | 0.00 | 0.00 | 0.00 | 85 | 1016.6 |
| 20260905003446 | 56 | 114 | 1.0 | 1.0 | 0.00 | 0.00 | 0.00 | 85 | 1016.6 |
| 20260905002947 | 56 | 158 | 0.0 | 2.0 | 0.00 | 0.00 | 0.00 | 85 | 1016.9 |
| 20260905002446 | 56 | 110 | 0.0 | 1.0 | 0.00 | 0.00 | 0.00 | 86 | 1016.9 |
| 20260905001946 | 56 | 69 | 0.0 | 2.0 | 0.00 | 0.00 | 0.00 | 85 | 1016.6 |
| 20260905001446 | 56 | 140 | 1.0 | 2.0 | 0.00 | 0.00 | 0.00 | 86 | 1016.3 |
| 20260905000945 | 56 | 145 | 1.0 | 2.0 | 0.00 | 0.00 | 0.00 | 85 | 1016.6 |
| 20260905000446 | 56 | 142 | 1.0 | 3.0 | 0.00 | 0.00 | 0.00 | 85 | 1016.6 |
| 20260904235946 | 56 | 64 | 0.0 | 1.0 | 0.00 | 0.00 | 0.00 | 85 | 1016.3 |
| 20260904235446 | 56 | 99 | 1.0 | 1.0 | 0.00 | 0.00 | 0.00 | 85 | 1016.3 |
| 20260904234947 | 56 | 171 | 1.0 | 1.0 | 0.00 | 0.00 | 0.00 | 85 | 1016.3 |
| 20260904234446 | 57 | 129 | 1.0 | 2.0 | 0.00 | 0.00 | 0.00 | 85 | 1016.3 |
| 20260904233946 | 57 | 163 | 1.0 | 2.0 | 0.00 | 0.00 | 0.00 | 85 | 1016.3 |
| 20260904233446 | 57 | 163 | 1.0 | 1.0 | 0.00 | 0.00 | 0.00 | 85 | 1016.3 |
| 20260904232947 | 57 | 115 | 1.0 | 1.0 | 0.00 | 0.00 | 0.00 | 84 | 1016.3 |
| 20260904232446 | 57 | 129 | 0.0 | 1.0 | 0.00 | 0.00 | 0.00 | 84 | 1016.3 |
| 20260904231946 | 57 | 248 | 1.0 | 2.0 | 0.00 | 0.00 | 0.00 | 84 | 1016.3 |
| 20260904231446 | 57 | 135 | 0.0 | 2.0 | 0.00 | 0.00 | 0.00 | 84 | 1016.3 |
| 20260904230946 | 57 | 159 | 1.0 | 2.0 | 0.00 | 0.00 | 0.00 | 84 | 1016.3 |
| 20260904230446 | 57 | 138 | 0.0 | 2.0 | 0.00 | 0.00 | 0.00 | 84 | 1016.3 |
| 20260904225946 | 57 | 81 | 1.0 | 1.0 | 0.00 | 0.15 | 0.00 | 84 | 1015.9 |
| 20260904225447 | 57 | 174 | 1.0 | 2.0 | 0.00 | 0.15 | 0.00 | 84 | 1015.9 |
| 20260904224946 | 57 | 142 | 1.0 | 2.0 | 0.00 | 0.15 | 0.00 | 84 | 1016.3 |
| 20260904224445 | 57 | 104 | 1.0 | 2.0 | 0.00 | 0.15 | 0.00 | 84 | 1016.3 |
| 20260904223947 | 57 | 37 | 1.0 | 1.0 | 0.00 | 0.15 | 0.00 | 84 | 1016.3 |
| 20260904223446 | 57 | 91 | 0.0 | 1.0 | 0.00 | 0.15 | 0.00 | 84 | 1015.9 |
| 20260904222947 | 57 | 133 | 1.0 | 1.0 | 0.00 | 0.15 | 0.00 | 84 | 1015.9 |
| 20260904222446 | 57 | 108 | 1.0 | 1.0 | 0.00 | 0.15 | 0.00 | 84 | 1015.9 |
| 20260904221946 | 57 | 73 | 1.0 | 1.0 | 0.00 | 0.15 | 0.00 | 84 | 1015.9 |
| 20260904221446 | 57 | 112 | 0.0 | 1.0 | 0.00 | 0.15 | 0.00 | 83 | 1015.9 |
| 20260904220946 | 57 | 155 | 0.0 | 2.0 | 0.00 | 0.15 | 0.00 | 83 | 1015.9 |
| 20260904220450 | 57 | 78 | 0.0 | 1.0 | 0.00 | 0.15 | 0.00 | 83 | 1015.9 |
| 20260904215946 | 58 | 83 | 1.0 | 1.0 | 0.00 | 0.15 | 0.00 | 82 | 1015.9 |
| 20260904215446 | 58 | 94 | 1.0 | 1.0 | 0.00 | 0.15 | 0.00 | 82 | 1015.9 |
| 20260904214946 | 58 | 108 | 0.0 | 1.0 | 0.00 | 0.15 | 0.00 | 82 | 1015.9 |
| 20260904214446 | 58 | 21 | 0.0 | 1.0 | 0.00 | 0.15 | 0.00 | 82 | 1015.9 |
| 20260904213945 | 58 | 15 | 1.0 | 2.0 | 0.00 | 0.15 | 0.00 | 81 | 1015.9 |
| 20260904213446 | 58 | 84 | 0.0 | 3.0 | 0.00 | 0.15 | 0.00 | 81 | 1015.9 |
| 20260904212946 | 58 | 67 | 0.0 | 1.0 | 0.00 | 0.15 | 0.00 | 81 | 1015.9 |
| 20260904212446 | 58 | 78 | 1.0 | 1.0 | 0.00 | 0.15 | 0.00 | 81 | 1015.6 |
| 20260904211946 | 58 | 39 | 0.0 | 2.0 | 0.00 | 0.15 | 0.00 | 81 | 1015.9 |
| 20260904211445 | 59 | 74 | 0.0 | 1.0 | 0.00 | 0.15 | 0.00 | 81 | 1015.6 |
| 20260904210948 | 59 | 129 | 0.0 | 3.0 | 0.00 | 0.15 | 0.00 | 81 | 1015.6 |
| 20260904210446 | 59 | 113 | 1.0 | 2.0 | 0.00 | 0.15 | 0.00 | 81 | 1015.6 |
| 20260904205947 | 59 | 120 | 2.0 | 3.0 | 0.00 | 0.15 | 0.00 | 81 | 1015.6 |
| 20260904205446 | 59 | 63 | 1.0 | 2.0 | 0.00 | 0.15 | 0.00 | 80 | 1015.6 |
| 20260904204947 | 59 | 122 | 1.0 | 2.0 | 0.00 | 0.15 | 0.00 | 80 | 1015.6 |
| 20260904204446 | 59 | 6 | 0.0 | 2.0 | 0.00 | 0.15 | 0.00 | 80 | 1015.6 |
| 20260904203948 | 59 | 51 | 1.0 | 2.0 | 0.00 | 0.15 | 0.00 | 79 | 1015.2 |
| 20260904203446 | 59 | 8 | 0.0 | 2.0 | 0.00 | 0.15 | 0.00 | 79 | 1015.2 |
| 20260904202946 | 59 | 11 | 1.0 | 3.0 | 0.00 | 0.15 | 0.00 | 79 | 1015.2 |
| 20260904202446 | 59 | 82 | 1.0 | 2.0 | 0.00 | 0.15 | 0.00 | 79 | 1015.2 |
| 20260904201947 | 60 | 25 | 1.0 | 3.0 | 0.00 | 0.15 | 0.00 | 78 | 1015.6 |
| 20260904201446 | 60 | 150 | 0.0 | 5.0 | 0.00 | 0.15 | 0.00 | 78 | 1015.2 |
| 20260904200946 | 60 | 340 | 2.0 | 5.0 | 0.00 | 0.15 | 0.00 | 77 | 1015.2 |
| 20260904200447 | 60 | 54 | 1.0 | 2.0 | 0.00 | 0.15 | 0.00 | 77 | 1014.9 |
| 20260904195945 | 60 | 9 | 2.0 | 5.0 | 0.00 | 0.15 | 0.00 | 77 | 1015.2 |
| 20260904195446 | 60 | 44 | 1.0 | 6.0 | 0.00 | 0.15 | 0.00 | 77 | 1015.2 |
| 20260904194947 | 60 | 78 | 1.0 | 5.0 | 0.00 | 0.15 | 0.00 | 76 | 1015.2 |
| 20260904194446 | 60 | 113 | 1.0 | 5.0 | 0.00 | 0.15 | 0.00 | 76 | 1015.2 |
| 20260904193946 | 60 | 347 | 2.0 | 3.0 | 0.00 | 0.15 | 0.00 | 76 | 1014.9 |